{"data":{"norad_id":69520,"epoch":"2026-09-20T04:08:41.979840Z","epoch_age_seconds":53695,"freshness":"FRESH","line1":"1 69520U 26133N   26263.17270810  .00013852  00000+0  42054-3 0  9998","line2":"2 69520  53.1568 231.2635 0001266  85.1313 274.9834 15.34386181 16712","mean_motion":15.34386181,"eccentricity":0.0001266,"inclination_deg":53.1568,"raan_deg":231.2635,"arg_perigee_deg":85.1313,"mean_anomaly_deg":274.9834,"bstar":0.00042054,"rev_number":1671,"period_min":93.848603293697,"perigee_km":461.8782579213,"apogee_km":463.61036906988,"semimajor_km":6840.8813134956,"source":"CELESTRAK","updated_at":"2026-09-20T09:00:44.212801Z"}}